GW2229 Weather Reports


time (UTC)temp
C
wind
direction
speed
KPH
gust
KPH
rain 1hr
cm
rain 24hr
cm
rain mn
cm
humidity
%
barometer
mb
20260510120905 24 165 3.2 8.0 0.00 0.53 0.00 97 1010.8
20260510115906 24 165 3.2 8.0 0.00 0.61 0.00 97 1010.7
20260510115406 24 165 4.8 8.0 0.00 0.66 0.00 97 1010.5
20260510114906 24 165 1.6 4.8 0.00 0.71 0.00 97 1010.5
20260510114406 24 165 1.6 4.8 0.00 0.76 0.00 97 1010.6
20260510113906 24 165 1.6 4.8 0.00 0.81 0.00 97 1010.5
20260510113405 24 165 1.6 4.8 0.00 0.89 0.00 97 1010.5
20260510112905 24 165 1.6 3.2 0.00 0.94 0.00 97 1010.4
20260510112406 24 165 0.0 3.2 0.00 1.02 0.00 97 1010.6
20260510111906 24 165 0.0 1.6 0.00 1.09 0.00 97 1010.6
20260510111405 24 165 1.6 4.8 0.00 1.19 0.00 97 1010.7
20260510110906 24 165 1.6 3.2 0.00 1.30 0.00 97 1010.7
20260510105905 24 165 3.2 8.0 0.00 1.55 0.00 97 1010.5
20260510105405 24 165 0.0 3.2 0.00 1.73 0.00 97 1010.4
20260510103405 24 135 3.2 11.3 0.00 2.24 0.00 97 1010.6
20260510102906 24 138 3.2 4.8 0.00 2.26 0.00 97 1010.6
20260510102406 24 138 3.2 4.8 0.00 2.26 0.00 97 1010.4
20260510101905 24 138 3.2 4.8 0.00 2.29 0.00 97 1010.4
20260510101406 24 138 3.2 4.8 0.00 2.31 0.00 97 1010.3
20260510100905 24 138 1.6 4.8 0.00 2.34 0.00 97 1010.4
20260510095906 24 138 1.6 8.0 0.00 2.39 0.00 97 1010.6
20260510095405 24 138 1.6 4.8 0.00 2.39 0.00 97 1010.7
20260510094905 23 138 0.0 4.8 0.00 2.39 0.00 97 1010.8
20260510093906 23 138 0.0 0.0 0.00 2.39 0.00 96 1010.5
20260510093405 23 138 0.0 0.0 0.00 2.39 0.00 96 1010.4
20260510092905 23 138 0.0 0.0 0.00 2.39 0.00 96 1010.2
20260510092405 23 138 0.0 0.0 0.00 2.39 0.00 96 1010.2
20260510091905 23 138 0.0 0.0 0.00 2.39 0.00 96 1010.2
20260510091405 23 138 0.0 0.0 0.00 2.39 0.00 96 1010.2
20260510090906 23 138 0.0 0.0 0.00 2.39 0.00 96 1010.1
20260510090405 23 138 0.0 0.0 0.00 2.39 0.00 96 1010.1
20260510085905 23 138 0.0 0.0 0.00 2.39 0.00 96 1010.2
20260510085405 23 138 1.6 4.8 0.00 2.39 0.00 95 1010.1
20260510084905 23 138 1.6 4.8 0.00 2.39 0.00 95 1010.2
20260510084405 23 138 3.2 4.8 0.00 2.39 0.00 95 1010.2
20260510083906 23 138 3.2 4.8 0.00 2.39 0.00 95 1010.3
20260510082405 23 138 1.6 4.8 0.00 2.39 0.00 95 1010.1
20260510081906 23 138 1.6 4.8 0.00 2.39 0.00 95 1010.4
20260510081406 23 138 3.2 4.8 0.00 2.39 0.00 94 1010.4
20260510080905 23 138 3.2 4.8 0.00 2.39 0.00 94 1010.5
20260510080405 23 148 3.2 4.8 0.00 2.39 0.00 94 1010.6
20260510075906 23 148 3.2 4.8 0.00 2.39 0.00 94 1010.5
20260510075405 23 144 3.2 8.0 0.00 2.39 0.00 94 1010.4
20260510074905 23 143 1.6 4.8 0.00 2.39 0.00 94 1010.5
20260510074405 24 143 1.6 4.8 0.00 2.39 0.00 94 1010.6
20260510073905 24 143 1.6 9.7 0.00 2.39 0.00 94 1010.5
20260510073405 24 158 4.8 9.7 0.00 2.39 0.00 94 1010.4
20260510072905 24 140 3.2 4.8 0.00 2.39 0.00 94 1010.4
20260510071405 24 141 6.4 12.9 0.00 2.39 0.00 94 1010.5
20260510070905 24 135 4.8 11.3 0.00 2.39 0.00 94 1010.7
20260510070405 24 132 4.8 9.7 0.00 2.39 0.00 94 1010.7
20260510065905 24 140 4.8 12.9 0.00 2.39 0.00 94 1010.7
20260510065405 24 147 3.2 11.3 0.00 2.39 0.00 94 1010.8
20260510064905 24 151 4.8 11.3 0.00 2.39 0.00 94 1010.9
20260510064405 24 145 3.2 8.0 0.00 2.39 0.00 94 1010.9
20260510063905 24 141 4.8 12.9 0.00 2.39 0.00 94 1010.8
20260510063405 24 151 4.8 14.5 0.00 2.39 0.00 94 1010.7
20260510062904 24 132 8.0 16.1 0.00 2.39 0.00 94 1010.7
20260510062405 24 152 8.0 11.3 0.00 2.39 0.00 93 1010.8
20260510061406 24 148 6.4 12.9 0.00 2.39 0.00 93 1010.6
20260510060905 24 136 6.4 11.3 0.00 2.39 0.00 93 1010.8
20260510060405 24 139 6.4 11.3 0.00 2.39 0.00 93 1010.8
20260510055905 24 151 4.8 12.9 0.00 2.39 0.00 93 1011.0
20260510055405 24 99 3.2 12.9 0.00 2.39 0.00 93 1011.0
20260510054405 24 140 8.0 14.5 0.00 2.39 0.00 93 1011.0
20260510053905 24 147 4.8 9.7 0.00 2.39 0.00 92 1011.1
20260510052405 24 108 1.6 4.8 0.00 2.39 0.00 92 1011.1
20260510051904 24 130 1.6 4.8 0.00 2.39 0.00 92 1011.0
20260510051405 24 161 1.6 9.7 0.00 2.39 0.00 92 1010.9
20260510050905 24 135 4.8 14.5 0.00 2.39 0.00 92 1010.8
20260510050404 24 147 4.8 11.3 0.00 2.39 0.00 91 1010.8
20260510045905 24 129 1.6 4.8 0.00 2.39 2.39 91 1010.6
20260510045405 24 131 4.8 9.7 0.00 2.39 2.39 91 1010.3
20260510044904 24 146 4.8 8.0 0.00 2.39 2.39 91 1010.1
20260510043905 24 135 3.2 8.0 0.00 2.39 2.39 91 1010.1
20260510043405 24 131 4.8 11.3 0.00 2.39 2.39 90 1010.0
20260510042905 24 133 6.4 14.5 0.00 2.39 2.39 90 1010.0
20260510041905 25 132 4.8 14.5 0.00 2.39 2.39 89 1009.8
20260510041405 25 150 4.8 14.5 0.00 2.39 2.39 89 1009.8
20260510040904 25 137 8.0 14.5 0.00 2.39 2.39 89 1009.5
20260510040405 25 143 8.0 14.5 0.00 2.39 2.39 89 1009.3
20260510035904 25 134 9.7 19.3 0.00 2.39 2.39 88 1009.6
20260510035405 25 137 6.4 16.1 0.00 2.39 2.39 88 1009.7
20260510034404 25 146 4.8 19.3 0.00 2.39 2.39 87 1009.8
20260510033905 25 134 8.0 19.3 0.00 2.39 2.39 87 1009.8
20260510033404 25 145 8.0 16.1 0.00 2.39 2.39 86 1009.8
20260510032904 25 142 8.0 14.5 0.00 2.39 2.39 86 1009.7
20260510032404 25 149 4.8 11.3 0.00 2.39 2.39 86 1009.8
20260510031404 25 129 4.8 12.9 0.00 2.39 2.39 85 1009.7
20260510030905 25 130 3.2 12.9 0.00 2.39 2.39 85 1009.7
20260510030404 25 134 4.8 12.9 0.00 2.39 2.39 85 1009.8
20260510025905 25 140 4.8 11.3 0.00 2.39 2.39 84 1009.6
20260510025404 25 133 4.8 16.1 0.00 2.39 2.39 84 1009.6
20260510024404 25 128 4.8 11.3 0.00 2.39 2.39 83 1009.4
20260510023904 25 123 1.6 4.8 0.00 2.39 2.39 82 1009.3
20260510023404 25 148 3.2 9.7 0.00 2.39 2.39 82 1009.3
20260510022905 25 129 3.2 14.5 0.00 2.39 2.39 81 1009.2
20260510022404 25 126 4.8 16.1 0.00 2.39 2.39 80 1009.3
20260510021905 25 131 4.8 16.1 0.00 2.39 2.39 80 1009.2
20260510021405 25 135 4.8 12.9 0.00 2.39 2.39 80 1009.2
20260510020904 25 171 4.8 11.3 0.00 2.39 2.39 79 1009.1
20260510020405 25 147 4.8 14.5 0.00 2.39 2.39 79 1008.9
20260510015924 25 149 4.8 16.1 0.00 2.39 2.39 79 1008.9
20260510015404 25 143 8.0 12.9 0.00 2.39 2.39 80 1008.8
20260510014905 25 141 6.4 12.9 0.00 2.39 2.39 80 1008.7
20260510014404 26 146 8.0 14.5 0.00 2.39 2.39 79 1008.5
20260510013904 26 132 6.4 14.5 0.00 2.39 2.39 78 1008.6
20260510013404 26 148 4.8 16.1 0.00 2.39 2.39 77 1008.5
20260510012404 26 143 8.0 16.1 0.00 2.39 2.39 76 1008.3
20260510011904 26 144 4.8 14.5 0.00 2.39 2.39 74 1008.3
20260510011404 26 123 4.8 11.3 0.00 2.39 2.39 74 1008.2
20260510010904 26 144 6.4 14.5 0.00 2.39 2.39 73 1008.3
20260510005905 27 134 8.0 14.5 0.00 2.39 2.39 71 1008.2
20260510005404 27 134 8.0 14.5 0.00 2.39 2.39 71 1008.3
20260510004904 27 157 4.8 19.3 0.00 2.39 2.39 71 1008.5
20260510004404 27 136 4.8 11.3 0.00 2.39 2.39 71 1008.6
20260510003904 27 134 6.4 12.9 0.00 2.39 2.39 71 1008.6
20260510003405 27 135 8.0 19.3 0.00 2.39 2.39 72 1008.5
20260510002904 27 143 6.4 14.5 0.00 2.39 2.39 72 1008.5
20260510002404 27 139 8.0 19.3 0.00 2.39 2.39 72 1008.6
20260510001404 28 141 9.7 19.3 0.00 2.39 2.39 72 1008.4
20260510000905 28 142 4.8 19.3 0.00 2.39 2.39 71 1008.3
20260510000404 28 143 9.7 16.1 0.00 2.39 2.39 71 1008.4
20260509235404 28 139 9.7 16.1 0.00 2.39 2.39 70 1008.4
20260509234908 28 147 9.7 19.3 0.00 2.39 2.39 69 1008.3
20260509234408 28 139 9.7 20.9 0.00 2.39 2.39 69 1008.2
20260509233907 28 134 6.4 12.9 0.00 2.39 2.39 69 1008.3
20260509233408 28 137 9.7 19.3 0.00 2.39 2.39 69 1008.3
20260509232907 28 152 6.4 14.5 0.00 2.39 2.39 69 1008.3
20260509232408 29 143 8.0 19.3 0.00 2.39 2.39 68 1008.4
20260509230908 29 149 8.0 14.5 0.00 2.39 2.39 68 1008.5
20260509230407 29 134 11.3 22.5 0.00 2.39 2.39 66 1008.4
20260509225908 29 147 9.7 19.3 0.00 2.39 2.39 69 1008.6
20260509225408 28 136 9.7 20.9 0.00 2.39 2.39 69 1008.6
20260509224908 28 142 9.7 19.3 0.00 2.39 2.39 69 1008.6
20260509224407 28 144 8.0 19.3 0.00 2.39 2.39 70 1008.6
20260509223907 28 113 8.0 19.3 0.00 2.39 2.39 71 1008.6
20260509223407 28 141 11.3 20.9 0.00 2.39 2.39 70 1008.7
20260509222907 28 143 6.4 14.5 0.00 2.39 2.39 72 1008.7
20260509222407 28 114 8.0 20.9 0.00 2.39 2.39 72 1008.6
20260509221907 29 101 6.4 19.3 0.00 2.39 2.39 72 1008.7
20260509221408 29 134 11.3 20.9 0.00 2.39 2.39 72 1008.7
20260509220407 30 142 9.7 14.5 0.00 2.39 2.39 72 1008.5
20260509215906 30 143 8.0 19.3 0.00 2.39 2.39 70 1008.5
20260509215407 31 111 6.4 19.3 0.00 2.39 2.39 69 1008.5
20260509214907 31 139 8.0 14.5 0.00 2.39 2.39 68 1008.5
20260509213907 31 148 8.0 19.3 0.00 2.39 2.39 66 1008.4
20260509213407 31 143 11.3 19.3 0.00 2.39 2.39 68 1008.5
20260509212907 31 139 11.3 19.3 0.00 2.39 2.39 70 1008.5
20260509212407 31 143 9.7 16.1 0.00 2.39 2.39 68 1008.5
20260509211907 31 137 11.3 19.3 0.00 2.39 2.39 65 1008.5
20260509211407 31 134 8.0 19.3 0.00 2.39 2.39 63 1008.4
20260509210907 32 145 9.7 19.3 0.00 2.39 2.39 62 1008.5
20260509210407 31 151 6.4 14.5 0.00 2.39 2.39 60 1008.6
20260509205907 31 160 6.4 12.9 0.00 2.39 2.39 62 1008.5
20260509204907 32 142 4.8 14.5 0.00 2.39 2.39 62 1008.7
20260509204407 32 149 4.8 14.5 0.00 2.39 2.39 62 1008.7
20260509203906 31 156 4.8 14.5 0.00 2.39 2.39 63 1008.6
20260509203407 31 130 3.2 14.5 0.00 2.39 2.39 62 1008.6
20260509202407 31 145 4.8 19.3 0.00 2.39 2.39 66 1008.6
20260509201906 32 131 6.4 19.3 0.00 2.39 2.39 65 1008.7
20260509201407 32 136 4.8 14.5 0.00 2.39 2.39 65 1008.7
20260509200407 31 138 3.2 11.3 0.00 2.39 2.39 65 1008.8
20260509195906 31 144 4.8 8.0 0.00 2.39 2.39 68 1008.8
20260509195407 31 154 4.8 9.7 0.00 2.39 2.39 69 1008.8
20260509193907 31 131 4.8 11.3 0.00 2.39 2.39 68 1008.9
20260509193407 31 122 3.2 11.3 0.00 2.39 2.39 67 1008.9
20260509192907 31 140 4.8 11.3 0.00 2.39 2.39 67 1009.0
20260509192407 31 128 1.6 11.3 0.00 2.39 2.39 65 1009.0
20260509191907 31 32 1.6 3.2 0.00 2.39 2.39 56 1008.9
20260509191407 31 19 3.2 4.8 0.00 2.39 2.39 56 1009.1
20260509190907 31 256 0.0 0.0 0.00 2.39 2.39 57 1008.9
20260509190407 31 256 0.0 4.8 0.00 2.39 2.39 55 1009.0
20260509185907 30 353 1.6 4.8 0.00 2.39 2.39 58 1009.0
20260509185407 30 183 1.6 4.8 0.00 2.39 2.39 58 1009.0
20260509184907 30 9 3.2 4.8 0.00 2.39 2.39 58 1009.0
20260509184407 30 279 1.6 9.7 0.00 2.39 2.39 63 1009.0
20260509183906 30 19 1.6 4.8 0.00 2.39 2.39 62 1009.1
20260509183406 30 249 0.0 4.8 0.00 2.39 2.39 65 1009.2
20260509182907 29 253 1.6 4.8 0.00 2.39 2.39 64 1009.1
20260509182407 29 275 4.8 9.7 0.00 2.39 2.39 62 1009.1
20260509181907 29 269 1.6 4.8 0.00 2.39 2.39 63 1009.3
20260509181406 29 246 1.6 4.8 0.00 2.39 2.39 66 1009.3
20260509180906 29 250 3.2 4.8 0.00 2.39 2.39 65 1009.2
20260509180407 29 262 3.2 11.3 0.00 2.39 2.39 65 1009.3
20260509175907 29 262 3.2 4.8 0.00 2.39 2.39 66 1009.3
20260509175406 29 251 1.6 4.8 0.00 2.39 2.39 69 1009.2
20260509174906 28 261 3.2 9.7 0.00 2.39 2.39 70 1009.2
20260509173406 28 180 1.6 3.2 0.00 2.39 2.39 70 1009.3
20260509172406 28 300 0.0 11.3 0.00 2.39 2.39 70 1009.3
20260509171906 28 32 3.2 4.8 0.00 2.39 2.39 72 1009.4
20260509171407 28 355 1.6 4.8 0.00 2.39 2.39 75 1009.3
20260509170906 28 11 3.2 8.0 0.00 2.39 2.39 74 1009.5
20260509170407 28 280 1.6 4.8 0.00 2.39 2.39 73 1009.5
20260509165907 28 258 4.8 9.7 0.00 2.39 2.39 71 1009.7
20260509164906 28 317 3.2 9.7 0.00 2.39 2.39 74 1009.8
20260509164407 28 38 3.2 4.8 0.00 2.39 2.39 74 1009.7
20260509163906 27 350 1.6 4.8 0.00 2.39 2.39 77 1009.8
20260509163408 27 188 0.0 0.0 0.00 2.39 2.39 78 1009.9
20260509162906 27 264 1.6 9.7 0.00 2.39 2.39 79 1010.0
20260509162406 26 59 0.0 4.8 0.00 2.39 2.39 80 1010.1
20260509161907 26 18 1.6 4.8 0.00 2.39 2.39 80 1010.3
20260509161406 26 278 1.6 4.8 0.00 2.39 2.39 82 1010.5
20260509160907 26 290 0.0 4.8 0.00 2.39 2.39 83 1010.2
20260509160407 25 266 3.2 8.0 0.00 2.39 2.39 84 1010.1
20260509155906 25 355 1.6 4.8 0.00 2.39 2.39 84 1010.0
20260509155406 25 264 1.6 4.8 0.00 2.39 2.39 86 1010.0
20260509154907 25 263 3.2 9.7 0.00 2.39 2.39 86 1010.0
20260509154406 24 311 1.6 4.8 0.00 2.39 2.39 88 1010.0
20260509153906 24 257 0.0 3.2 0.00 2.39 2.39 90 1009.8
20260509153407 23 257 0.0 4.8 0.03 2.39 2.39 91 1009.8
20260509152907 23 268 3.2 4.8 0.03 2.39 2.39 92 1009.7
20260509152406 23 266 1.6 4.8 0.03 2.39 2.39 93 1009.5
20260509151906 23 273 1.6 9.7 0.03 2.39 2.39 94 1009.2
20260509150906 22 275 3.2 4.8 0.05 2.39 2.39 94 1009.4
20260509150406 22 255 0.0 4.8 0.08 2.39 2.39 95 1009.2
20260509145906 22 228 1.6 4.8 0.08 2.39 2.39 95 1009.2
20260509145406 22 263 1.6 4.8 0.08 2.39 2.39 95 1009.0
20260509144406 22 281 0.0 3.2 0.10 2.39 2.39 96 1008.7
20260509143906 22 3 3.2 4.8 0.13 2.39 2.39 96 1008.6
20260509143406 21 236 1.6 3.2 0.10 2.36 2.36 95 1008.7
20260509142906 21 113 1.6 4.8 0.13 2.36 2.36 95 1008.6
20260509142406 21 7 3.2 8.0 0.15 2.36 2.36 95 1008.4
20260509141906 21 339 0.0 0.0 0.15 2.36 2.36 95 1008.7
20260509141406 21 339 0.0 1.6 0.15 2.34 2.34 95 1008.8
20260509140906 21 308 1.6 4.8 0.18 2.34 2.34 94 1008.8
20260509140406 21 46 1.6 4.8 0.15 2.31 2.31 94 1009.0
20260509135906 21 59 3.2 4.8 0.18 2.31 2.31 94 1008.9
20260509135406 21 107 3.2 8.0 0.20 2.31 2.31 94 1008.4
20260509134906 21 124 4.8 8.0 0.20 2.29 2.29 94 1008.6
20260509133906 21 130 14.5 24.1 0.20 2.26 2.26 95 1008.3
20260509133406 21 135 16.1 32.2 0.23 2.26 2.26 95 1008.5
20260509131406 21 138 25.7 41.8 0.30 2.18 2.18 95 1008.5
20260509130906 22 143 22.5 41.8 0.30 2.16 2.16 96 1008.5
20260509130405 22 140 22.5 40.2 0.36 2.16 2.16 96 1008.5
20260509125905 22 143 20.9 35.4 0.36 2.13 2.13 97 1008.8
20260509125406 22 147 17.7 32.2 0.38 2.11 2.11 97 1008.9
20260509124906 22 138 16.1 32.2 0.41 2.08 2.08 97 1009.6
20260509123406 22 142 11.3 19.3 0.53 2.03 2.03 97 1010.4
20260509122906 21 146 9.7 19.3 0.53 1.98 1.98 97 1010.3
20260509122405 21 137 12.9 25.7 0.58 1.96 1.96 96 1009.8
20260509121906 21 137 8.0 19.3 0.64 1.93 1.93 97 1009.8
20260509121406 21 167 4.8 11.3 0.69 1.88 1.88 96 1009.8